Probability
0 0 0 0 0 0 0 0 0 0 0 0 0 0 0 0 0 0 0 0 0 0 0 0 0 0 0 0 0 0 0 0 0 0 0 0 0 0 0 0 0 0 0
0 0 0 0 0 0 0 0 0 0 0 0 0 0 0 0 0 0 0 0 0 0 0 0 0 0 0 0 0 0 0 0 0 0 0 0 0 0 0 0 0 0 0
0 0 0 0 0 0 0 0 0 0 0 0 0 0 0 0 0 0 0 0 0 0 0 0 0 0 0 0 0 0 0 0 0 0 0 0 0 0 0 0 0 0 0
0 0 0 0 0 0 0 0 0 0 0 0 0 0 0 0 0 0 0 0 0 0 0 0 0 0 0 0 0 0 0 0 0 0 0 0 0 0 0 0 0 0 0
0 0 0 0 0 0 0 0 0 0 0 0 0 0 0 0 0 0 0 0 0 0 0 0 0 0 0 0 0 0 0 0 0 0 0 0 0 0 0 0 0 0 0
0 0 0 0 0 0 0 0 0 0 0 0 0 0 0 0 0 0 0 0 0 0 0 0 0 0 0 0 0 0 0 0 0 0 0 0 0 0 0 0 0 0 0
0 0 0 0 0 0 0 0 0 0 0 0 0 0 0 0 0 0 0 0 0 0 0 0 0 0 0 0 0 0 0 0 0 0 0 0 0 0 0 0 0 0 0
0 0 0 0 0 0 0 0 0 0 0 0 0 0 0 0 0 0 0 0 0 0 0 0 0 0 0 0 0 0 0 0 0 0 0 0 0 0 0 0 0 0 0
0 0 0 0 0 0 0 0 0 0 0 0 0 0 0 0 0 0 0 0 0 0 0 0 0 0 0 0 0 0 0 0 0 0 0 0 0 0 0 0 0 0 0
0 0 0 0 0 0 0 0 0 0 0 0 0 0 0 0 0 0 0 0 0 0 0 0 0 0 0 0 0 0 0 0 0 0 0 0 0 0 0 0 0 0 0
0 0 0 0 0 0 0 0 0 0 0 0 0 0 0 0 0 0 0 0 0 0 0 0 0 0 0 0 0 0 0 0 0 0 0 0 0 0 0 0 0 0 0
0 0 0 0 0 0 0 0 0 0 0 0 0 0 0 0 0 0 0 0 0 0 0 0 0 0 0 0 0 0 0 0 0 0 0 0 0 0 0 0 0 0 0
0 0 0 0 0 0 0 0 0 0 0 0 0 0 0 0 0 0 0 0 0 0 0 0 0 0 0 0 0 0 0 0 0 0 0 0 0 0 0 0 0 0 0
0 0 0 0 0 0 0 0 0 0 0 0 0 0 0 0 0 0 0 0 0 0 0 0 0 0 0 0 0 0 0 0 0 0 0 0 0 0 0 0 0 0 0
0 0 0 0 0 0 0 0 0 0 0 0 0 0 0 0 0 0 0 0 0 0 0 0 0 0 0 0 0 0 0 0 0 0 0 0 0 0 0 0 0 0 0
0 0 0 0 0 0 0 0 0 0 0 0 0 0 0 0 0 0 0 0 0 0 0 0 0 0 0 0 0 0 0 0 0 0 0 0 0 0 0 0 0 0 0
0 0 0 0 0 0 0 0 0 0 0 0 0 0 0 0 0 0 0 0 0 0 0 0 0 0 0 0 0 0 0 0 0 0 0 0 0 0 0 0 0 0 0
0 0 0 0 0 0 0 0 0 0 0 0 0 0 0 0 0 0 0 0 0 0 0 0 0 0 0 0 0 0 0 0 0 0 0 0 0 0 0 0 0 0 0
0 0 0 0 0 0 0 0 0 0 0 0 0 0 0 0 0 0 0 0 0 0 0 0 0 0 0 0 0 0 0 0 0 0 0 0 0 0 0 0 0 0 0
0 0 0 0 0 0 0 0 0 0 0 0 0 0 0 0 0 0 0 0 0 0 0 0 0 0 0 0 0 0 0 0 0 0 0 0 0 0 0 0 0 0 0
0 0 0 0 0 0 0 0 0 0 0 0 0 0 0 0 0 0 0 0 0 0 0 0 0 0 0 0 0 0 0 0 0 0 0 0 0 0 0 0 0 0 0
0 0 0 0 0 0 0 0 0 0 0 0 0 0 0 0 0 0 0 0 0 0 0 0 0 0 0 0 0 0 0 0 0 0 0 0 0 0 0 0 0 0 0
0 0 0 0 0 0 0 0 0 0 0 0 0 0 0 0 0 0 0 0 0 0 0 0 0 0 0 0 0 0 0 0 0 0 0 0 0 0 0 0 0 0 0
0 0 0 0 0 0 0 0 0 0 0 0 0 0 0 0 0 0 0 0 0 0 0 0 0 0 0 0 0 0 0 0 0 0 0 0 0 0 0 0 0 0 0
0 0 0 0 0 0 0 0 0 0 0 0 0 0 0 0 0 0 0 0 0 0 0 0 0 0 0 0 0 0 0 0 0 0 0 0 0 0 0 0 0 0 0
0 0 0 0 0 0 0 0 0 0 0 0 0 0 0 0 0 0 0 0 0 0 0 0 0 0 0 0 0 0 0 0 0 0 0 0 0 0 0 0 0 0 0
Height
5878 5878 5878 5878 5878 5878 5878 5878 5878 5878 5878 5877 5877 5877 5877 5877 5877 5877 5877 5878 5878 5878 5878 5878 5879 5879 5879 5879 5880 5880 5880 5880 5881 5881 5881 5882 5882 5883 5883 5884 5884 5884 5885
5877 5876 5876 5876 5876 5876 5876 5876 5876 5876 5876 5875 5875 5875 5875 5875 5875 5875 5875 5875 5875 5875 5875 5875 5876 5876 5876 5877 5877 5877 5877 5878 5878 5878 5878 5879 5879 5880 5880 5880 5881 5881 5882
5875 5875 5875 5875 5875 5875 5874 5874 5874 5874 5874 5873 5873 5873 5872 5872 5872 5873 5873 5873 5873 5873 5873 5873 5873 5873 5873 5874 5874 5874 5875 5875 5875 5875 5875 5876 5876 5876 5877 5877 5877 5878 5878
5873 5873 5873 5873 5873 5873 5873 5872 5872 5872 5872 5871 5871 5870 5870 5870 5870 5870 5870 5870 5870 5870 5870 5870 5870 5870 5871 5871 5871 5871 5871 5871 5871 5872 5872 5872 5872 5872 5873 5873 5873 5874 5874
5872 5872 5872 5872 5871 5871 5871 5870 5870 5870 5869 5869 5869 5868 5868 5868 5868 5868 5868 5868 5868 5868 5868 5868 5868 5868 5868 5868 5868 5868 5868 5868 5868 5868 5868 5868 5868 5868 5868 5869 5869 5869 5869
5870 5870 5870 5869 5869 5869 5869 5868 5868 5868 5867 5867 5867 5866 5866 5866 5866 5865 5865 5865 5865 5865 5865 5865 5865 5865 5865 5865 5865 5865 5865 5865 5865 5865 5865 5865 5865 5865 5864 5864 5864 5864 5865
5868 5868 5867 5867 5867 5867 5866 5866 5866 5865 5865 5865 5864 5864 5864 5863 5863 5863 5863 5863 5863 5863 5863 5863 5863 5862 5862 5862 5862 5862 5862 5862 5861 5861 5861 5861 5861 5861 5860 5860 5860 5860 5860
5866 5866 5865 5865 5865 5864 5864 5864 5863 5863 5863 5863 5862 5862 5861 5861 5861 5860 5860 5860 5860 5860 5860 5860 5860 5859 5859 5859 5859 5859 5858 5858 5858 5857 5857 5857 5856 5856 5855 5855 5855 5855 5854
5863 5863 5863 5862 5862 5862 5862 5861 5861 5861 5860 5860 5860 5859 5859 5858 5858 5858 5857 5857 5857 5857 5857 5857 5856 5856 5856 5856 5855 5855 5854 5854 5853 5853 5853 5852 5851 5851 5850 5850 5849 5849 5849
5861 5860 5860 5860 5859 5859 5859 5858 5858 5858 5857 5857 5857 5856 5856 5856 5855 5855 5854 5854 5854 5853 5853 5853 5853 5852 5852 5851 5851 5851 5850 5849 5849 5848 5848 5847 5846 5846 5845 5844 5844 5843 5842
5857 5857 5857 5856 5856 5856 5855 5855 5855 5854 5854 5854 5853 5853 5853 5852 5852 5851 5851 5850 5850 5849 5849 5848 5848 5848 5847 5847 5846 5845 5845 5844 5843 5843 5842 5841 5840 5840 5839 5838 5837 5836 5836
5854 5853 5853 5853 5852 5852 5852 5851 5851 5851 5850 5850 5849 5849 5848 5848 5847 5847 5846 5846 5845 5845 5844 5844 5843 5842 5842 5841 5840 5840 5839 5838 5837 5836 5835 5835 5834 5833 5832 5831 5830 5829 5828
5850 5849 5849 5849 5848 5848 5847 5847 5847 5846 5845 5845 5845 5844 5844 5843 5843 5842 5841 5841 5840 5840 5839 5838 5837 5837 5836 5835 5834 5833 5832 5831 5830 5829 5828 5827 5826 5825 5824 5823 5822 5820 5819
5845 5845 5845 5844 5844 5843 5843 5842 5841 5841 5840 5840 5839 5839 5838 5838 5837 5836 5836 5835 5834 5833 5833 5832 5831 5830 5829 5828 5827 5826 5825 5824 5823 5822 5820 5819 5818 5816 5815 5814 5812 5811 5810
5841 5840 5840 5839 5839 5838 5838 5837 5836 5835 5834 5834 5833 5833 5832 5831 5831 5830 5829 5829 5828 5826 5826 5825 5824 5823 5822 5821 5819 5818 5817 5816 5814 5813 5812 5810 5809 5807 5805 5804 5802 5801 5799
5836 5835 5834 5834 5833 5833 5832 5831 5830 5829 5829 5828 5827 5826 5825 5825 5824 5823 5822 5821 5820 5819 5818 5817 5816 5815 5813 5812 5811 5809 5808 5807 5805 5804 5802 5801 5799 5797 5795 5793 5791 5790 5788
5832 5831 5829 5828 5827 5827 5826 5825 5824 5823 5822 5821 5820 5819 5818 5817 5816 5815 5814 5813 5811 5810 5809 5808 5807 5806 5804 5803 5801 5799 5798 5797 5796 5794 5792 5790 5788 5786 5784 5782 5780 5778 5776
5827 5826 5825 5823 5822 5821 5820 5819 5818 5816 5815 5814 5813 5811 5810 5809 5807 5806 5805 5804 5802 5801 5800 5799 5797 5796 5794 5792 5790 5788 5787 5786 5785 5782 5781 5779 5777 5774 5772 5770 5768 5765 5763
5823 5821 5820 5818 5817 5815 5814 5812 5811 5810 5808 5806 5805 5803 5801 5800 5799 5797 5796 5795 5792 5791 5789 5788 5786 5785 5783 5781 5779 5777 5775 5774 5772 5770 5769 5766 5764 5761 5759 5757 5754 5752 5750
5817 5816 5814 5813 5811 5810 5808 5806 5805 5803 5801 5799 5797 5795 5793 5791 5789 5788 5787 5785 5782 5780 5778 5776 5774 5772 5771 5768 5765 5764 5763 5760 5758 5757 5756 5753 5750 5747 5745 5743 5740 5739 5736
5812 5811 5809 5807 5806 5804 5802 5800 5798 5796 5793 5791 5789 5787 5785 5782 5780 5778 5777 5775 5772 5770 5767 5765 5762 5760 5758 5754 5752 5750 5749 5746 5745 5743 5741 5738 5736 5733 5730 5728 5726 5723 5721
5807 5805 5803 5801 5799 5797 5795 5793 5791 5788 5786 5783 5781 5779 5776 5774 5771 5769 5766 5764 5761 5759 5756 5753 5750 5747 5744 5740 5737 5734 5733 5734 5732 5728 5725 5723 5721 5718 5715 5712 5710 5708 5705
5801 5799 5797 5794 5792 5790 5787 5785 5783 5781 5778 5776 5773 5771 5768 5765 5763 5760 5757 5753 5750 5747 5744 5740 5736 5732 5729 5726 5721 5717 5714 5715 5715 5713 5710 5707 5704 5701 5699 5696 5693 5691 5688
5795 5793 5790 5788 5785 5783 5780 5778 5775 5773 5771 5768 5766 5763 5759 5756 5753 5750 5747 5743 5740 5736 5732 5728 5723 5719 5714 5711 5707 5702 5698 5695 5692 5693 5695 5692 5688 5685 5682 5679 5676 5673 5671
5789 5786 5784 5781 5778 5776 5773 5771 5768 5766 5763 5760 5757 5755 5751 5748 5744 5740 5736 5732 5728 5724 5720 5715 5710 5705 5700 5696 5691 5687 5682 5677 5672 5669 5672 5673 5670 5667 5664 5661 5658 5655 5653
5782 5780 5777 5775 5772 5769 5767 5764 5762 5759 5756 5753 5749 5746 5742 5738 5734 5729 5725 5720 5716 5711 5706 5701 5695 5690 5685 5680 5674 5669 5664 5660 5656 5650 5648 5650 5649 5648 5644 5642 5639 5637 5634
Wind_Speed
11 11 11 11 11 10 10 10 11 11 11 11 11 11 11 11 11 11 11 11 11 12 12 12 13 13 14 14 15 15 16 16 16 16 17 17 17 17 18 18 18 18 18
10 10 10 10 10 10 10 10 11 11 11 11 11 11 11 10 10 10 10 10 11 11 11 12 12 13 13 14 14 15 15 16 17 17 18 18 18 18 19 19 19 20 20
9 10 10 10 10 10 11 11 11 11 12 11 11 10 10 9 9 9 9 9 10 10 11 11 12 12 13 13 14 15 15 16 17 17 18 19 19 20 20 21 21 22 22
9 9 10 10 11 11 11 11 11 12 11 11 10 9 9 9 8 8 8 9 9 10 10 11 11 12 12 13 13 14 15 16 16 17 18 19 20 21 22 22 23 24 24
9 10 10 11 11 12 12 12 12 11 11 10 9 9 9 9 9 8 8 9 9 9 10 10 11 12 12 13 13 14 15 16 16 17 18 19 20 21 22 23 24 25 26
10 11 11 12 12 12 12 12 12 11 11 10 9 9 9 9 9 9 9 9 9 9 10 10 11 12 12 13 14 14 15 16 17 18 19 20 21 22 23 23 24 25 26
12 12 13 13 13 13 13 12 12 11 11 10 10 9 9 9 9 9 9 9 9 10 10 11 11 12 13 13 14 15 15 16 17 17 18 20 21 22 23 24 25 27 28
12 13 13 14 14 14 13 13 13 12 11 11 11 10 10 10 10 10 10 10 10 10 11 11 12 12 13 14 14 15 16 17 17 18 19 20 21 22 23 24 26 27 28
13 13 14 14 14 14 14 14 14 13 13 12 12 12 12 11 11 12 12 12 12 12 13 13 14 14 15 15 16 17 17 18 19 20 21 21 22 23 24 25 26 27 29
14 14 14 15 16 16 15 15 15 15 15 14 14 14 14 14 14 14 14 15 15 15 16 16 16 17 18 18 19 19 20 21 21 22 23 23 24 25 26 27 28 29 30
15 15 16 16 17 17 17 17 17 17 17 17 17 17 17 17 17 17 18 18 18 19 19 20 20 21 21 22 22 23 23 24 25 25 26 27 28 28 29 30 31 31 32
17 17 18 18 18 19 19 19 19 20 20 20 20 20 20 21 21 21 22 22 22 23 23 23 24 24 25 25 26 27 27 28 28 29 30 31 31 32 33 34 34 35 36
19 19 20 20 20 21 21 22 22 23 23 23 24 24 24 25 25 26 26 26 26 27 27 28 28 28 29 29 30 31 31 32 32 33 34 34 35 36 36 37 38 39 39
20 21 21 22 22 23 24 25 25 26 26 27 27 27 28 29 29 30 30 30 31 31 32 32 32 33 33 34 34 35 36 36 36 37 38 38 39 40 40 41 42 42 43
22 22 23 23 24 25 25 27 28 29 30 30 31 31 32 33 33 34 35 35 36 36 37 37 37 37 38 38 39 39 40 40 41 41 42 42 43 43 44 45 45 46 47
21 23 24 25 26 26 27 28 30 31 31 32 33 34 35 36 37 38 39 39 40 41 41 41 42 42 43 43 44 44 44 45 45 45 46 46 46 47 48 49 49 50 50
21 23 24 26 27 28 29 30 31 32 33 34 35 36 37 38 39 40 41 43 44 45 46 46 46 47 47 48 48 49 49 49 49 49 50 50 50 51 52 52 53 53 53
22 23 24 25 27 28 29 30 31 32 33 34 36 37 38 40 41 42 43 44 47 48 49 49 50 51 51 52 53 54 54 53 53 53 53 53 54 55 55 56 56 56 57
24 24 25 25 26 28 29 30 31 32 33 35 37 38 40 41 42 43 44 46 48 49 50 51 52 54 54 55 56 57 57 57 57 57 56 57 58 58 59 59 59 59 59
26 26 27 27 28 29 30 30 31 32 34 35 37 39 40 42 43 44 45 46 48 50 51 52 53 55 56 57 58 59 59 60 60 60 59 60 61 61 62 62 62 62 62
27 28 29 29 29 30 31 32 32 33 35 36 38 39 41 42 44 45 45 47 48 50 51 53 54 56 56 58 60 60 61 62 62 62 62 63 63 64 64 64 64 65 65
29 30 31 31 32 32 32 33 33 34 35 36 38 39 40 42 43 44 46 47 49 50 52 53 55 57 57 59 61 62 62 62 62 63 64 65 65 66 66 66 67 67 67
31 32 33 33 33 34 34 34 34 35 35 36 37 38 40 41 43 44 46 48 49 51 52 54 56 58 59 61 62 64 64 63 63 64 65 66 66 67 68 68 69 69 70
33 33 33 33 33 33 33 33 34 34 35 36 37 38 39 40 41 43 45 47 49 51 53 55 57 59 61 62 64 66 67 67 67 65 64 65 67 68 69 70 71 72 72
33 32 32 32 31 31 31 31 32 32 33 34 35 36 38 40 42 44 46 47 49 51 52 55 57 59 61 63 65 67 68 70 71 71 68 67 68 69 70 71 72 73 74
32 32 30 29 29 29 29 29 30 31 33 34 36 38 40 42 44 46 48 50 52 54 55 57 59 61 63 65 67 69 70 71 72 74 73 71 71 71 72 73 73 74 75
Wind_Direction
260 260 259 258 258 259 260 262 263 265 267 268 268 268 267 267 267 267 267 267 267 268 267 265 263 262 262 261 260 259 258 257 257 256 256 256 256 256 256 256 256 256 257
260 260 259 259 259 260 260 261 264 267 268 268 268 267 267 266 265 265 265 265 266 266 267 267 265 263 262 261 260 259 259 259 259 259 259 258 258 258 258 258 259 259 259
256 259 261 261 262 263 263 265 267 269 269 268 268 267 265 264 263 264 265 266 267 268 268 268 268 267 266 264 263 261 261 261 261 262 262 261 261 260 260 261 261 261 261
256 260 263 264 265 266 267 269 271 271 269 267 267 265 265 265 265 266 267 269 270 270 270 271 271 271 271 270 268 266 265 265 265 265 265 265 265 264 263 263 263 263 263
257 262 265 267 269 269 269 271 272 272 268 266 265 264 265 266 268 268 269 270 271 272 272 273 274 275 274 274 272 271 270 270 270 270 270 269 269 269 269 268 267 266 265
259 263 266 269 270 270 271 272 272 270 267 266 265 265 266 268 270 270 271 271 272 274 275 275 276 277 277 276 276 275 275 274 273 272 272 272 272 271 271 271 270 269 268
261 265 268 270 270 270 270 270 270 267 265 265 266 268 269 270 271 272 272 273 274 275 276 276 276 277 278 278 278 278 278 277 277 276 276 275 274 274 273 272 272 271 271
266 268 269 271 270 270 270 269 268 265 263 264 266 267 269 270 272 273 274 274 274 274 275 275 277 278 279 279 279 279 279 279 279 279 278 278 277 276 276 275 274 273 272
270 270 270 270 270 270 270 268 266 264 263 264 265 266 267 269 270 272 273 274 275 276 277 277 278 279 280 280 280 279 279 279 279 279 280 280 279 279 278 278 277 276 274
272 271 269 269 269 268 268 267 265 264 264 263 263 264 266 267 268 270 272 273 274 275 276 277 278 279 279 280 280 281 281 281 281 281 281 281 281 281 281 281 280 279 278
271 270 268 266 267 267 266 265 264 264 263 263 263 264 265 267 268 269 270 272 273 274 275 276 277 278 279 280 281 281 282 282 283 283 284 284 284 284 283 283 283 282 281
270 268 266 265 265 265 265 264 264 264 263 263 263 263 265 266 267 268 269 270 271 273 274 275 276 277 279 280 281 281 282 283 284 284 285 285 285 285 285 285 285 285 284
269 268 267 266 266 266 265 264 263 263 263 263 263 264 265 266 266 268 269 270 271 272 274 275 277 278 280 281 281 282 283 284 284 285 286 286 286 287 287 287 287 287 286
271 271 271 270 269 267 266 265 264 264 263 263 264 265 265 266 266 267 269 270 272 273 274 276 277 279 280 281 282 283 283 284 285 286 286 287 288 288 288 289 288 288 288
273 274 274 274 272 271 269 268 267 266 266 266 266 266 266 267 267 268 269 270 272 273 275 277 278 279 281 282 282 283 284 285 286 287 288 288 289 289 289 289 289 289 289
277 277 277 276 275 274 272 271 271 270 270 270 270 269 269 270 270 270 270 271 272 274 275 277 278 279 281 282 282 283 284 285 286 287 288 289 289 289 290 290 290 290 290
281 280 280 280 278 277 276 275 275 275 274 273 273 273 272 272 272 272 272 272 273 274 275 277 278 279 280 281 282 283 284 285 286 287 287 288 288 289 289 289 290 290 290
283 282 282 281 280 280 279 279 278 277 277 276 275 275 274 274 274 274 274 274 275 276 277 277 278 279 279 280 281 282 283 284 285 285 286 287 287 288 288 288 289 289 289
287 286 285 284 284 283 283 282 281 281 280 279 279 278 277 277 276 276 276 276 276 277 278 278 278 278 279 280 280 281 282 283 283 283 284 285 286 286 287 287 288 288 288
289 288 288 287 286 285 285 285 285 284 283 283 282 282 281 281 281 280 280 279 279 279 279 279 279 280 280 280 280 281 281 282 282 283 283 284 284 285 285 286 286 287 287
289 288 288 288 288 287 287 287 287 286 286 286 286 286 286 285 285 285 285 284 284 283 283 282 282 282 281 281 281 281 281 282 282 283 282 282 282 283 283 284 285 285 285
289 289 289 289 289 288 288 288 288 287 287 287 287 288 288 288 287 287 287 287 287 287 286 286 286 285 285 284 284 284 283 282 283 282 282 282 282 282 282 283 283 284 284
289 289 290 291 290 290 290 289 289 289 289 290 290 290 290 289 289 289 289 289 288 288 288 288 287 287 286 286 286 285 285 285 282 281 281 281 281 281 281 281 281 281 282
289 290 291 292 292 292 292 292 292 292 292 292 292 292 292 292 291 291 290 289 289 289 288 287 287 287 286 286 285 285 286 286 285 283 280 279 279 279 279 279 279 279 280
289 290 292 293 294 294 295 295 295 295 295 295 295 296 296 296 295 294 293 293 292 291 289 288 287 287 286 286 286 285 285 285 285 285 283 280 279 278 277 277 277 278 278
290 291 293 294 295 296 297 297 297 298 298 298 298 298 298 297 297 296 295 294 293 292 291 290 289 288 287 286 285 285 284 284 283 283 283 282 280 279 277 277 277 277 277